Tracking 18980 objects as of 19-Feb-2018
HD Live streaming from Space Station
objects crossing your sky now

MOLNIYA 2-10

Track MOLNIYA 2-10 now!
MOLNIYA 2-10 is classified as:


NORAD ID: 7376
Int'l Code: 1974-056A
Perigee: 1,019.6 km
Apogee: 39,271.6 km
Inclination: 63.2 °
Period: 716.2 minutes
Semi major axis: 26516 km
RCS: 14.6103 m2 (large)
Launch date: July 23, 1974
Source: Commonwealth of Independent States (former USSR) (CIS)
Launch site: PLESETSK MISSILE AND SPACE COMPLEX (PKMTR)
aabbcc
Your satellite tracking list
Your tracking list is empty




NASA's NSSDC Master Catalog

Two Line Element Set (TLE):
1  7376U 74056A   18049.34269676 +.00000898 +00000-0 -14248-1 0  9996
2  7376 063.1708 267.0069 7212825 294.2564 009.0635 02.01060243318620
Source of the keplerian elements: AFSPC